map of MDC home
Great Circle Mapper logo
MDC - Airport
Location
City:  Manado, Sulawesi Island, Indonesia
Name:Sam Ratulangi
ICAO / IATA:WAMM / MDC

Details
Type:Airport (Aerodrome, Airfield)
Use:Public/Civil, International (customs port of entry)
Latitude:132'58"N (1.549447)
Longitude:12455'33"E (124.925878)
Datum:WGS 1984
Elevation:264 ft (80 m)
Runways:1
Longest:8691 × 148 ft (2649 × 45 m), paved

Time
Time Zone:UTC+8
Local Time:

Weather
METAR:WAMM 241800Z 14002KT 8000 FEW023 24/23 Q1008 NOSIG
TAF:WAMM 241100Z 2412/2518 22003KT 9999 FEW023 PROB40
TEMPO 2416/2420 7000 -RA FEW019CB FEW020
BECMG 2500/2502 32008KT SCT023
BECMG 2512/2514 16003KT FEW023

Related Locations
Nearby:
Farthest:ALT: 12426 mi / 19998 km
Alenquer, PA, BR

Find:

   beyond  
but within

Other Information
Maps:
NOTAMs:
Links:
Sources:

  
flag of Indonesia   

Sectional Chart

Flight Planning
at skyvector.com

Satellite Image

Google Maps Satellite View

 

Copyright © 2004-2014 Karl L. Swartz. All rights reserved.
The Great Circle Mapper name and logo are trademarks of the Great Circle Mapper.
All other trademarks mentioned herein belong to their respective owners.
Please see credits for attibutions and further copyright information.

  Follow gcmap on Facebook Follow gcmap on Twitter

hCard Microformat

Geo Microformat